Terug naar catalogus

STARLINK-3994

ActiefCommunicatieVLEO
NORAD 52633·PAYLOAD·🇺🇸 United States

Gelanceerd May 14, 2022 vanaf Cape Canaveral Space Force Station

Loading…

Volgende Passages (komende 24 uur)

TLE

VersSource: CelesTrak SupGP

Epoch: Sep 14, 2026, 21:34 UTC

1 52633C 22052AM  26257.89909722 -.00024713  00000+0 -15505-2 0  2571
2 52633  53.1578 139.0971 0001347  82.4784  27.7217 15.08829935    15

Volg STARLINK-3994 in realtime met AllMySat

Download on the App Store